Lid_Strength_Index
1 1 1 1 1 1 2 2 4 6 6 3 3 1 1 1 1 2 2 2 1 2 2 2 2 2 2 1 1 0 0 -0 -0 -1 -2 -1 -1 -1
1 1 1 1 1 1 1 2 2 4 6 3 2 2 1 1 1 2 2 1 2 2 3 3 3 3 2 2 1 1 1 1 1 -0 -1 -1 -1 -0
1 1 2 1 2 1 1 1 2 2 4 3 1 2 2 2 2 2 1 1 2 2 2 3 4 3 3 2 2 2 2 2 0 0 -0 0 1 1
2 2 2 1 2 1 2 2 2 2 3 4 2 2 2 2 3 2 2 1 2 3 3 4 4 4 4 5 5 4 3 2 2 2 2 2 2 2
2 2 2 2 2 2 2 2 2 2 3 3 3 3 3 2 3 2 3 3 2 3 4 4 5 5 6 6 6 5 4 5 5 5 4 4 4 4
1 1 1 1 2 2 2 2 3 3 3 3 4 4 4 3 3 4 4 3 3 3 4 5 6 6 7 5 4 6 7 7 7 7 6 6 6 6
1 1 1 1 2 2 2 3 3 3 3 4 4 4 5 4 5 5 5 4 4 5 7 7 7 5 4 4 5 6 7 7 7 7 7 8 8 8
2 1 2 2 4 5 5 4 3 3 3 4 4 4 4 5 5 4 4 4 6 4 6 5 3 5 7 7 7 7 7 7 7 8 8 8 8 9
1 1 1 1 2 3 6 6 6 6 4 3 3 4 4 4 4 5 4 4 5 4 3 5 6 8 8 8 7 8 8 8 8 8 8 8 9 9
1 1 1 1 2 1 2 2 2 2 2 2 2 3 3 2 3 4 2 3 3 3 3 6 6 8 8 9 7 8 8 9 8 8 8 9 10 10
1 1 1 1 7 6 2 3 3 3 6 6 7 8 8 6 4 2 3 4 4 3 2 4 5 6 7 8 9 8 8 8 9 9 10 10 11 10
1 3 6 3 7 7 2 3 3 3 3 3 3 6 5 4 6 1 1 3 3 3 1 3 5 5 7 8 9 10 10 9 10 10 11 10 11 9
2 2 4 9 9 8 5 2 3 2 4 2 2 2 1 1 1 0 0 1 2 3 1 1 4 4 4 7 8 9 10 11 11 11 10 10 10 10
2 1 6 10 9 7 4 9 9 5 1 1 2 2 2 1 0 0 0 0 0 1 1 1 3 3 4 6 8 8 8 9 9 9 10 10 10 10
1 6 12 10 10 9 8 9 7 1 1 2 2 2 1 1 1 0 1 1 1 1 -0 0 1 3 3 4 7 8 8 8 8 8 8 11 11 10
7 5 6 7 6 5 6 6 1 1 1 2 2 1 1 1 1 1 3 2 4 5 4 4 4 3 4 6 7 8 7 8 8 8 9 9 8 9
2 1 2 2 2 2 1 1 1 1 1 1 2 2 1 1 1 1 2 3 5 6 7 6 6 8 10 8 8 8 8 9 8 9 10 10 9 9
2 2 2 2 2 2 2 2 1 2 1 1 1 1 2 2 2 2 2 3 4 6 7 7 7 9 9 11 10 9 9 8 8 9 9 11 11 10
2 2 2 2 2 2 2 2 2 1 1 1 1 1 1 1 4 2 2 3 4 5 6 7 7 9 11 11 12 12 9 9 10 10 11 11 12 11
2 2 2 2 2 2 1 1 1 1 1 1 1 1 1 2 2 2 3 3 3 4 6 7 8 9 11 11 12 15 14 11 11 11 12 12 11 11
2 2 1 1 1 1 1 1 1 1 1 1 2 1 1 2 2 2 2 6 5 3 6 7 8 11 9 9 12 13 14 12 12 12 13 14 14 13
1 1 1 1 1 1 1 1 1 2 1 1 1 1 1 1 2 2 2 3 4 3 5 9 9 10 10 10 13 14 13 13 12 12 13 12 14 16
1 1 1 1 1 1 1 1 2 1 1 1 1 1 1 2 1 1 2 2 3 4 9 10 11 11 10 11 13 13 13 12 12 13 13 12 11 11